Temperature
15 16 16 16 17 16 17 17 17 17 17 17 17 17 17 17 17 17 17 17 17 17 17 17 17 17 17 17 17 17 16 16 16 16 16 16 15 15 15 15 15 14 14
15 15 16 16 16 17 17 17 17 17 17 17 17 17 17 17 17 17 17 17 17 17 17 17 17 17 17 17 17 17 16 16 16 16 16 15 15 15 15 14 14 14 14
15 15 16 16 16 16 17 17 17 17 17 17 17 17 17 17 17 17 17 17 17 17 17 17 17 17 17 16 16 16 16 16 16 15 15 15 15 15 15 14 14 14 14
15 15 15 16 16 16 16 17 17 17 17 17 17 17 17 17 17 17 17 17 17 17 17 17 17 16 16 16 16 16 16 16 15 15 15 15 14 14 14 14 14 14 13
14 15 15 15 16 16 16 16 16 16 16 17 17 17 17 17 17 17 17 17 17 17 16 16 16 16 16 16 16 16 16 15 15 15 15 14 14 14 14 14 14 14 13
14 14 14 15 15 16 16 16 16 16 16 16 16 16 16 16 16 16 16 16 16 16 16 16 16 16 16 16 16 16 15 15 15 15 14 14 14 14 14 14 14 13 13
14 14 14 14 15 15 15 15 15 16 16 16 16 16 16 16 16 16 16 16 16 16 16 16 16 16 16 16 16 16 15 15 15 14 14 14 14 14 14 13 13 13 13
13 13 13 13 14 14 14 15 15 15 15 15 16 16 16 16 16 16 16 16 16 16 16 16 16 16 16 16 15 15 15 15 14 14 14 14 14 13 13 13 13 13 13
13 13 13 13 13 13 14 14 14 14 15 15 15 15 15 15 15 15 15 15 16 16 16 16 16 16 15 15 15 15 14 14 14 14 14 13 13 13 13 13 13 13 12
12 12 12 12 12 13 13 13 13 14 14 14 14 15 15 15 15 15 15 15 15 15 15 15 15 15 15 15 15 15 14 14 14 14 14 13 13 13 13 13 13 12 12
12 12 12 12 12 12 12 12 13 13 13 14 14 14 14 14 14 14 15 15 15 15 15 15 15 15 15 15 15 14 14 14 13 13 13 13 13 13 13 13 12 12 12
11 11 11 11 11 11 12 12 12 12 12 13 13 13 13 14 14 14 14 14 14 14 14 14 14 14 14 14 14 14 14 13 13 13 13 13 13 13 13 13 12 12 12
11 10 10 10 10 10 11 11 11 11 11 12 12 12 12 13 13 13 13 13 13 13 13 14 14 14 14 14 14 13 13 13 13 13 13 13 13 13 13 13 12 12 12
10 10 10 10 10 10 10 10 10 10 11 11 11 11 11 12 12 12 12 13 13 13 13 13 13 13 13 13 13 13 13 13 13 13 13 13 13 13 13 12 12 12 12
10 10 9 9 9 9 9 9 9 9 9 10 10 11 11 11 11 11 11 12 12 12 12 12 12 12 12 12 12 12 12 13 13 12 12 12 13 13 12 12 12 12 12
9 9 9 9 9 9 9 9 9 9 9 9 9 10 10 10 10 10 10 11 11 11 11 12 11 12 12 12 12 12 12 12 12 12 12 12 12 12 12 12 12 12 12
9 9 9 8 8 8 8 8 8 8 8 9 9 9 9 9 10 10 10 10 10 11 11 11 11 11 11 11 11 11 11 12 12 12 12 12 12 12 12 12 12 12 12
9 8 8 8 8 8 7 8 8 8 8 8 8 8 9 9 9 9 9 9 10 10 10 10 10 10 10 10 11 11 11 11 11 11 11 12 12 12 12 12 12 12 12
8 8 8 8 7 7 7 7 7 7 7 8 8 8 8 8 8 8 8 9 9 9 9 9 9 10 10 10 10 10 10 11 11 11 11 11 11 11 11 11 12 12 11
8 8 7 7 7 7 7 7 7 7 7 7 7 8 8 8 8 8 8 8 8 8 9 9 9 9 9 10 10 10 10 10 10 10 11 11 11 11 11 11 11 11 11
8 7 7 7 7 7 6 6 6 6 7 7 7 7 7 7 7 7 7 8 8 8 8 8 8 9 9 9 9 9 9 10 10 10 10 10 10 10 11 11 11 11 11
8 7 7 7 7 6 6 6 6 6 6 6 6 6 7 7 7 7 7 7 7 7 7 8 8 8 8 8 8 8 8 9 9 9 10 10 10 10 10 11 11 11 11
7 7 7 7 7 6 6 6 6 6 6 6 6 6 6 6 6 6 7 7 7 7 7 7 7 7 8 8 8 8 8 8 8 9 9 10 10 10 10 10 10 10 11
7 7 7 7 6 6 6 6 5 5 5 5 5 5 5 6 6 6 6 6 6 6 7 7 7 7 7 7 8 8 8 8 8 8 9 9 9 9 9 10 10 10 10
7 7 7 6 6 6 6 5 5 5 5 5 5 5 5 5 5 6 6 6 6 6 6 6 6 7 7 7 7 7 8 8 8 8 7 8 9 9 9 9 10 10 10
7 7 6 6 6 6 5 5 5 5 5 5 5 5 5 5 5 5 5 5 6 6 6 6 6 6 6 6 7 7 7 7 7 8 7 7 8 8 9 9 9 9 10
Wind_Speed
5 8 12 13 13 12 11 10 9 9 7 7 5 3 2 2 3 4 4 4 5 6 6 7 8 8 7 7 8 8 9 10 11 11 11 10 10 10 10 9 9 9 13
4 9 12 12 12 12 11 11 10 8 7 6 5 3 2 2 2 3 4 4 4 5 6 6 7 7 8 8 9 9 9 10 10 10 10 9 9 10 9 9 9 10 13
6 10 12 13 12 12 11 11 10 9 7 6 5 4 2 1 2 3 3 3 4 5 5 6 7 7 8 9 9 10 10 10 10 10 10 8 9 10 10 9 10 12 13
6 10 12 12 13 12 11 10 10 9 8 7 5 4 3 2 0 2 2 3 3 4 5 5 6 7 7 9 10 10 10 11 10 9 7 7 9 10 10 10 11 12 12
6 10 11 12 12 12 11 10 9 8 8 7 6 4 3 2 1 0 2 3 3 3 4 5 5 7 7 8 10 10 10 10 10 9 6 6 9 12 11 11 11 11 11
6 9 10 11 11 11 11 11 9 8 7 7 6 5 3 2 2 1 1 2 3 3 4 5 6 6 8 9 10 10 10 10 9 8 6 6 9 12 12 11 11 11 11
5 7 8 9 9 10 10 11 10 9 7 7 6 5 4 3 3 2 2 2 3 4 4 5 5 6 7 9 10 11 11 10 9 7 6 6 10 13 12 12 11 11 12
5 6 6 7 8 8 9 9 10 9 8 7 6 6 5 5 4 3 3 3 3 4 5 5 5 6 7 9 10 11 10 10 9 7 6 7 11 13 12 12 11 11 11
6 5 5 6 7 8 8 8 9 9 8 7 6 6 6 5 5 4 4 3 4 4 4 6 6 6 8 9 10 11 10 10 7 7 8 8 12 13 13 12 12 12 12
4 4 4 6 8 7 7 7 8 9 9 8 7 6 6 6 5 5 4 4 4 5 6 6 7 7 8 9 11 11 11 10 8 7 7 9 14 14 14 13 12 13 12
3 3 4 4 6 7 7 8 8 8 9 9 7 7 6 4 4 4 4 4 5 5 6 7 7 8 8 10 11 12 11 8 8 7 8 12 15 15 14 14 13 13 13
4 4 4 4 4 5 6 6 6 7 8 8 7 7 5 5 4 4 4 4 5 6 6 6 7 8 8 7 9 11 9 9 8 7 10 15 16 16 16 16 15 14 13
3 4 4 3 3 3 3 4 4 5 5 6 7 7 6 4 4 3 2 2 3 4 3 4 5 5 6 6 7 8 9 8 7 8 11 17 18 18 17 17 16 15 14
3 3 3 2 2 2 3 3 3 3 3 3 5 6 4 2 1 1 1 2 2 2 2 3 3 5 5 5 7 7 7 6 6 7 11 17 18 19 18 18 17 16 15
3 3 3 3 2 1 2 2 2 2 3 3 4 5 4 1 2 2 2 2 2 2 3 3 4 5 5 6 6 7 7 6 7 8 10 16 18 18 19 19 19 18 17
3 3 3 3 2 1 1 2 2 2 3 3 3 4 4 2 2 2 2 3 3 2 3 4 4 4 4 5 6 6 7 6 7 8 10 13 16 18 19 19 19 19 18
2 3 3 4 3 2 2 3 3 2 3 3 3 5 5 3 2 3 2 3 3 3 4 4 4 3 4 4 5 6 5 6 6 7 9 11 12 16 19 20 19 19 19
2 3 3 4 4 3 3 4 3 3 3 3 3 4 5 4 3 3 3 3 3 3 3 3 3 3 4 4 4 5 4 5 7 7 8 10 11 12 15 19 20 19 19
2 3 3 3 4 4 4 4 4 3 3 3 4 4 4 5 4 3 3 3 3 3 3 4 3 3 4 4 4 4 4 4 5 6 7 8 10 11 12 16 19 19 19
2 3 4 4 5 4 4 4 3 4 4 3 4 4 5 5 4 3 3 3 3 3 3 4 4 4 4 4 4 4 4 4 4 5 7 7 8 11 12 12 14 15 18
3 4 4 4 4 3 3 3 3 4 4 4 4 5 5 5 5 4 4 4 4 4 5 5 4 5 4 3 2 2 3 4 5 6 6 6 7 10 12 13 13 13 13
3 4 4 5 5 4 3 4 4 4 4 5 4 5 6 6 5 6 5 5 5 4 5 5 4 4 4 4 3 3 2 2 4 6 6 7 7 7 9 12 13 13 12
3 4 5 5 5 5 5 4 4 4 4 4 5 5 6 7 6 6 7 6 6 6 6 6 6 6 5 5 5 4 3 3 2 3 5 6 7 6 7 9 11 12 13
4 4 5 6 6 6 5 5 6 6 6 7 6 5 6 7 8 8 8 7 7 6 7 7 7 6 6 6 6 5 4 3 3 2 3 5 6 7 7 7 9 11 13
4 4 5 6 6 6 5 5 6 7 7 6 6 7 7 7 8 9 9 8 8 7 8 8 7 7 7 7 6 5 4 4 4 4 5 5 4 5 6 7 7 9 12
4 4 5 6 6 6 6 6 7 8 8 8 9 8 7 7 7 8 9 9 9 8 9 9 9 9 8 8 7 6 6 5 6 5 6 7 6 5 5 6 7 7 9
Wind_Direction
28 57 50 34 31 31 33 35 39 42 45 46 54 73 101 129 141 143 143 144 146 150 154 158 156 153 150 144 135 127 121 118 115 112 110 110 107 105 107 105 101 99 102
39 56 54 37 34 33 33 32 33 38 41 41 43 49 80 120 143 153 154 155 159 164 167 165 166 165 157 154 148 141 136 133 127 123 120 119 115 112 107 101 101 105 105
50 52 50 36 31 32 31 29 28 32 34 36 38 39 40 91 148 158 164 168 169 165 165 170 172 171 166 163 159 154 150 149 145 141 136 132 128 122 115 108 105 108 107
54 57 50 37 30 28 28 27 25 26 26 24 25 25 28 30 190 184 176 178 182 178 174 170 173 167 170 167 166 164 163 162 160 157 152 151 142 133 127 120 119 114 110
55 64 56 42 32 27 23 23 21 19 18 15 10 6 4 4 352 240 207 189 183 188 189 180 172 167 165 169 169 172 173 172 169 164 155 147 138 139 137 133 129 122 118
48 62 60 47 35 28 24 18 16 10 6 2 1 349 337 333 323 281 215 198 193 195 199 194 184 180 176 173 171 178 182 183 176 166 165 149 134 143 144 142 137 132 128
41 53 58 49 39 30 23 17 9 4 358 351 349 336 319 306 301 288 243 216 208 205 200 198 191 189 182 182 182 183 189 189 179 168 167 149 144 151 151 149 144 141 136
34 41 50 43 35 26 20 14 8 357 349 342 340 330 315 302 285 272 251 235 222 215 206 199 194 193 189 190 194 195 196 194 187 176 166 152 152 156 157 155 151 149 144
26 27 32 35 30 22 15 9 4 355 342 332 328 324 314 302 284 264 253 240 226 222 215 209 200 197 198 197 200 205 205 201 196 180 173 160 162 164 164 161 158 156 151
23 16 20 25 24 16 6 3 0 350 342 328 321 317 313 298 283 264 250 242 234 228 222 213 208 204 202 204 205 207 209 205 202 187 171 169 170 174 171 167 164 162 158
19 22 27 23 20 7 355 359 351 348 345 338 327 327 324 312 294 274 256 250 240 236 228 219 214 210 205 203 205 208 208 208 192 186 178 177 177 181 180 175 171 169 165
10 15 23 15 14 6 356 355 348 350 346 343 339 334 325 320 312 302 274 253 242 238 232 222 220 213 203 196 203 206 208 206 189 182 184 182 184 186 185 182 178 174 172
8 13 14 1 4 0 351 349 346 348 344 344 340 331 326 326 326 325 303 264 248 236 218 220 213 211 207 197 196 204 208 199 191 184 186 185 187 190 190 186 181 178 177
9 2 352 355 344 346 348 335 333 338 337 336 331 322 325 312 298 290 272 264 233 230 213 207 210 216 214 205 205 209 207 198 191 180 186 185 189 193 194 190 185 183 181
354 348 340 334 316 311 329 312 322 306 311 319 322 319 318 291 265 266 259 260 255 242 210 219 222 217 213 207 214 216 211 205 194 182 183 187 190 196 197 195 191 188 187
328 326 329 326 299 283 298 290 282 291 304 310 311 308 305 298 259 262 255 257 253 242 230 228 235 225 217 212 221 220 213 203 197 185 180 188 193 196 200 200 198 194 193
311 317 318 315 304 276 281 280 284 282 293 287 295 300 294 286 267 263 259 259 252 253 243 239 238 234 226 220 223 228 218 209 199 189 183 186 193 199 202 202 201 199 198
310 311 308 307 312 286 269 266 269 274 280 279 286 290 283 275 274 259 250 256 264 254 237 240 231 232 228 220 222 227 228 220 205 196 186 186 190 195 201 203 203 203 202
298 298 299 297 294 285 270 262 263 262 262 268 278 275 274 266 264 256 247 251 266 247 239 246 233 225 230 228 223 225 224 224 216 206 198 193 191 189 191 199 202 204 203
280 284 283 281 278 279 279 269 268 264 263 261 263 264 264 263 258 256 252 247 250 246 244 237 236 233 229 223 234 236 229 227 224 214 208 200 192 191 192 193 196 202 204
266 277 288 293 283 272 276 270 270 267 266 269 261 266 269 263 255 247 256 246 242 241 241 241 239 231 227 217 210 230 250 228 220 215 211 203 200 196 193 193 191 192 197
265 281 287 289 285 273 267 266 257 264 264 260 257 260 259 257 251 256 243 239 238 242 243 239 240 238 229 205 196 191 237 253 236 224 211 208 206 201 200 196 192 189 188
278 273 287 287 285 272 270 277 276 275 278 273 266 263 259 260 252 249 245 238 234 231 237 237 228 236 228 218 203 196 192 216 240 239 223 215 205 205 205 196 192 190 190
275 271 275 283 279 273 272 273 271 273 273 271 266 262 261 259 250 244 242 238 232 229 231 235 233 224 224 220 221 229 227 201 203 233 234 222 210 210 210 201 193 191 189
274 266 268 271 273 272 268 265 267 272 272 273 272 269 270 262 250 243 238 235 232 228 226 228 230 223 222 221 222 221 230 219 211 210 227 223 228 215 210 206 197 192 189
283 277 267 267 273 274 271 265 261 266 272 276 275 270 267 262 251 241 236 233 231 228 226 226 226 225 225 224 224 221 214 208 206 209 215 212 224 231 218 212 203 196 188
Height
1498 1497 1495 1495 1495 1495 1496 1496 1497 1498 1499 1500 1501 1501 1502 1503 1504 1505 1506 1507 1509 1509 1510 1511 1512 1513 1514 1515 1516 1516 1517 1517 1518 1518 1519 1519 1519 1519 1519 1520 1520 1520 1521
1498 1496 1495 1495 1495 1495 1496 1496 1497 1498 1499 1500 1500 1501 1502 1503 1504 1505 1506 1507 1508 1509 1510 1511 1512 1513 1514 1514 1515 1516 1517 1517 1518 1518 1519 1519 1519 1520 1520 1520 1521 1521 1522
1497 1496 1495 1495 1495 1495 1495 1496 1497 1497 1498 1499 1500 1500 1501 1502 1503 1504 1505 1506 1507 1508 1509 1510 1511 1512 1513 1514 1515 1516 1516 1517 1517 1518 1519 1519 1519 1520 1521 1521 1521 1522 1522
1497 1495 1495 1494 1494 1494 1495 1495 1496 1496 1497 1498 1498 1499 1500 1501 1502 1503 1504 1505 1506 1507 1508 1509 1510 1511 1512 1513 1514 1515 1516 1516 1517 1518 1519 1519 1520 1520 1521 1521 1522 1522 1522
1496 1495 1494 1494 1493 1493 1494 1494 1495 1495 1496 1496 1497 1498 1498 1499 1500 1501 1502 1503 1504 1505 1507 1508 1509 1510 1511 1511 1513 1514 1515 1516 1517 1518 1518 1519 1520 1520 1521 1521 1522 1522 1523
1495 1494 1493 1493 1492 1492 1492 1493 1493 1494 1494 1495 1495 1496 1496 1497 1498 1499 1500 1501 1502 1503 1505 1506 1507 1508 1509 1510 1511 1513 1514 1515 1516 1517 1518 1519 1519 1520 1520 1521 1521 1522 1522
1494 1493 1493 1492 1491 1491 1491 1491 1491 1492 1492 1493 1493 1494 1494 1495 1496 1497 1498 1499 1500 1501 1503 1504 1505 1506 1507 1508 1510 1511 1512 1513 1515 1516 1517 1518 1518 1519 1520 1520 1521 1521 1522
1493 1492 1491 1491 1490 1489 1489 1489 1489 1489 1490 1490 1491 1491 1492 1493 1493 1494 1495 1496 1497 1499 1500 1501 1502 1503 1505 1506 1507 1509 1511 1512 1513 1514 1515 1516 1517 1518 1519 1519 1520 1521 1521
1492 1491 1490 1489 1488 1488 1487 1487 1487 1487 1487 1488 1488 1489 1489 1490 1491 1492 1493 1494 1495 1496 1497 1498 1499 1500 1502 1503 1505 1506 1508 1510 1511 1512 1513 1514 1515 1516 1517 1518 1519 1519 1520
1490 1489 1488 1487 1486 1486 1485 1485 1485 1485 1485 1485 1485 1486 1486 1487 1488 1489 1490 1491 1492 1493 1494 1495 1496 1497 1499 1500 1502 1504 1505 1507 1508 1510 1511 1512 1513 1514 1515 1516 1517 1518 1519
1488 1487 1486 1485 1484 1483 1483 1483 1482 1482 1482 1482 1482 1483 1483 1484 1484 1485 1486 1487 1489 1490 1491 1492 1493 1494 1495 1497 1498 1500 1502 1504 1505 1506 1508 1509 1511 1512 1513 1514 1515 1516 1517
1486 1484 1483 1483 1482 1481 1480 1480 1479 1479 1479 1479 1479 1479 1480 1480 1481 1482 1483 1484 1485 1486 1487 1488 1489 1490 1492 1493 1495 1496 1498 1500 1502 1503 1504 1506 1508 1509 1510 1511 1513 1514 1515
1483 1482 1481 1480 1479 1478 1477 1477 1476 1476 1476 1476 1476 1476 1476 1476 1477 1478 1479 1480 1481 1482 1483 1484 1485 1486 1488 1489 1491 1492 1494 1496 1497 1499 1501 1503 1504 1506 1508 1509 1510 1511 1513
1481 1479 1479 1478 1477 1476 1475 1474 1473 1473 1473 1473 1473 1473 1473 1473 1473 1474 1474 1476 1477 1478 1478 1480 1481 1482 1483 1485 1487 1488 1490 1492 1493 1495 1497 1499 1501 1503 1504 1506 1507 1509 1510
1478 1477 1476 1475 1474 1473 1472 1471 1471 1470 1470 1469 1469 1469 1469 1469 1469 1469 1470 1472 1473 1473 1474 1475 1477 1478 1479 1480 1482 1484 1485 1487 1489 1490 1493 1495 1497 1499 1501 1503 1504 1506 1507
1475 1474 1473 1472 1471 1470 1469 1468 1468 1467 1467 1466 1466 1466 1465 1465 1465 1466 1466 1467 1468 1469 1470 1471 1472 1473 1475 1476 1477 1480 1481 1483 1484 1486 1488 1490 1493 1495 1497 1499 1501 1502 1504
1473 1472 1470 1470 1468 1467 1466 1465 1464 1464 1463 1463 1462 1462 1462 1461 1461 1462 1462 1463 1464 1466 1466 1467 1468 1469 1470 1471 1473 1475 1476 1478 1480 1481 1484 1486 1488 1490 1492 1495 1497 1498 1501
1470 1469 1467 1466 1465 1464 1463 1461 1461 1460 1459 1459 1458 1458 1458 1457 1457 1457 1458 1459 1460 1461 1462 1463 1463 1464 1465 1466 1468 1470 1472 1473 1475 1476 1478 1481 1483 1485 1487 1490 1492 1494 1497
1467 1465 1464 1463 1461 1460 1459 1458 1457 1456 1455 1455 1454 1454 1454 1453 1453 1453 1453 1454 1456 1456 1457 1458 1459 1460 1460 1461 1463 1465 1467 1468 1469 1471 1473 1475 1478 1480 1482 1485 1488 1490 1492
1464 1462 1461 1459 1458 1457 1455 1454 1453 1452 1451 1451 1450 1449 1449 1449 1448 1449 1449 1450 1451 1452 1452 1453 1454 1455 1456 1457 1458 1460 1462 1463 1465 1466 1468 1470 1473 1475 1478 1480 1482 1485 1487
1461 1459 1457 1456 1454 1453 1451 1450 1448 1447 1446 1446 1445 1445 1445 1444 1444 1444 1444 1445 1446 1447 1447 1448 1449 1450 1450 1452 1454 1455 1457 1459 1460 1461 1463 1465 1467 1470 1472 1475 1477 1479 1482
1457 1456 1454 1453 1451 1450 1448 1446 1445 1443 1441 1441 1440 1440 1440 1440 1439 1439 1439 1440 1441 1442 1442 1443 1444 1445 1445 1447 1449 1450 1451 1454 1455 1457 1458 1460 1462 1464 1466 1469 1471 1474 1476
1454 1452 1451 1449 1447 1446 1444 1442 1440 1438 1437 1436 1435 1434 1434 1434 1434 1434 1434 1435 1435 1436 1436 1438 1439 1440 1440 1442 1444 1446 1446 1446 1449 1451 1453 1455 1457 1459 1461 1463 1465 1468 1471
1450 1448 1447 1445 1443 1442 1440 1438 1436 1433 1431 1430 1430 1429 1429 1429 1428 1428 1428 1428 1429 1430 1430 1432 1433 1435 1436 1436 1438 1440 1442 1441 1444 1445 1448 1450 1452 1453 1456 1457 1459 1462 1465
1446 1445 1443 1441 1439 1438 1436 1434 1431 1429 1427 1426 1424 1423 1422 1422 1422 1422 1422 1422 1422 1423 1424 1425 1427 1429 1430 1431 1432 1434 1435 1437 1438 1440 1441 1443 1446 1448 1450 1452 1454 1456 1459
1443 1441 1439 1437 1434 1433 1431 1429 1427 1424 1422 1420 1418 1417 1416 1415 1414 1414 1414 1415 1415 1416 1417 1418 1420 1421 1423 1425 1426 1428 1428 1429 1431 1434 1436 1438 1440 1442 1444 1446 1448 1451 1453